Location: Boiro
(42.6475°N, 8.8834°W)
Time: 01:57:53
(UTC+01:00)

Explorer 7 - Pass Details

Date: 07 December 2021
Orbit: 483 x 674 km, 50.3° (Epoch: 23 January)

Event Time Altitude Azimuth Distance (km) Brightness Sun altitude
Rises 08:03:06 0° 275° (W) 2,820 - -8.9°
Reaches altitude 10° 08:05:38 10° 285° (WNW) 1,884 - -8.4°
Exits shadow 08:05:45 11° 286° (WNW) 1,842 8.8 -8.4°
Maximum altitude 08:09:28 31° 349° (NNW) 985 7.8 -7.8°
Drops below altitude 10° 08:13:06 10° 53° (NE) 1,781 9.8 -7.2°
Sets 08:15:27 0° 64° (ENE) 2,640 10.9 -6.8°
